Glenwood, MN

5:19 PM CDT on August 17, 2017 (GMT -0500)
Glenwood Municipal

Weather History for KGHW - December, 2013

Change the Weather History Date:

Tuesday, December 24, 2013

  Actual Average Record
Temperature  
Mean Temperature -8 °F -  
Max Temperature 10 °F 19 °F 40 °F (1953)
Min Temperature -25 °F 0 °F -30 °F (1983)
Degree Days  
Heating Degree Days 72    
Moisture  
Dew Point -9 °F    
Average Humidity 78    
Maximum Humidity 92    
Minimum Humidity 59    
Precipitation  
Precipitation 0.01 in - - ()
Sea Level Pressure  
Sea Level Pressure 30.18 in    
Wind  
Wind Speed 8 mph (SSE)    
Max Wind Speed 21 mph    
Max Gust Speed 26 mph    
Visibility 7 miles    
Events Snow    
Averages and records for this station are not official NWS values.
T = Trace of Precipitation, MM = Missing Value Source: NWS Daily Summary

Daily Weather History Graph

Daily Weather History Graph

Search for Another Location

Airport or City:

Trip Planner

Search our weather history database for the weather conditions in past years. The results will help you decide how hot, cold, wet, or windy it might be!

Date:

Astronomy

Dec. 24, 2013 Rise Set
Actual Time 8:00 AM CST 4:41 PM CST
Civil Twilight 7:25 AM CST 5:16 PM CST
Nautical Twilight 6:48 AM CST 5:54 PM CST
Astronomical Twilight 6:12 AM CST 6:30 PM CST
Moon No Moon Rise 11:35 AM CST (12/24)
Length of Visible Light 9h 50m
Length of Day
8h 41m
Waning Gibbous, 58% of the Moon is Illuminated
Dec 24
Waning Gibbous
Dec 25
Last Quarter
Jan 1
New
Jan 7
First Quarter
Jan 15
Full

Hourly Weather History & Observations

Time (CST) Temp. Windchill Dew Point Humidity Pressure Visibility Wind Dir Wind Speed Gust Speed Precip Events Conditions
12:13 AM -23.8 °F - -27.4 °F 83% 30.41 in 10.0 mi Calm Calm - N/A   Clear
12:33 AM -23.8 °F - -29.2 °F 76% 30.41 in 10.0 mi Calm Calm - N/A   Clear
12:53 AM -23.8 °F - -27.4 °F 83% 30.41 in 10.0 mi Calm Calm - N/A   Clear
1:13 AM -23.8 °F -35.0 °F -27.4 °F 83% 30.38 in 10.0 mi SE 3.5 mph - N/A   Clear
1:34 AM -23.8 °F - -29.2 °F 76% 30.37 in 10.0 mi Calm Calm - N/A   Clear
1:54 AM -25.6 °F -41.9 °F -31.0 °F 76% 30.36 in 10.0 mi ESE 5.8 mph - N/A   Clear
2:13 AM -25.6 °F -45.4 °F -31.0 °F 76% 30.34 in 10.0 mi ESE 8.1 mph - N/A   Clear
2:34 AM -23.8 °F -41.6 °F -29.2 °F 76% 30.34 in 10.0 mi SE 6.9 mph - N/A   Clear
2:53 AM -23.8 °F -44.5 °F -29.2 °F 76% 30.33 in 10.0 mi SE 9.2 mph - N/A   Clear
3:13 AM -23.8 °F -41.6 °F -29.2 °F 76% 30.32 in 10.0 mi SE 6.9 mph - N/A   Clear
3:34 AM -22.0 °F -39.4 °F -27.4 °F 76% 30.32 in 10.0 mi SE 6.9 mph - N/A   Clear
3:53 AM -20.2 °F -37.3 °F -25.6 °F 76% 30.31 in 10.0 mi SSE 6.9 mph - N/A   Clear
4:14 AM -18.4 °F -36.6 °F -23.8 °F 76% 30.31 in 10.0 mi SSE 8.1 mph - N/A   Clear
4:33 AM -18.4 °F -35.1 °F -23.8 °F 76% 30.30 in 10.0 mi South 6.9 mph - N/A   Clear
4:53 AM -16.6 °F -32.9 °F -22.0 °F 76% 30.30 in 10.0 mi South 6.9 mph - N/A   Clear
5:14 AM -16.6 °F -34.4 °F -22.0 °F 76% 30.30 in 10.0 mi South 8.1 mph - N/A   Clear
5:33 AM -16.6 °F -35.7 °F -20.2 °F 84% 30.27 in 10.0 mi SSE 9.2 mph - N/A   Clear
5:54 AM -14.8 °F -34.6 °F -18.4 °F 84% 30.26 in 10.0 mi SE 10.4 mph - N/A   Clear
6:13 AM -14.8 °F -33.5 °F -18.4 °F 84% 30.25 in 10.0 mi SE 9.2 mph - N/A   Clear
6:33 AM -14.8 °F -34.6 °F -20.2 °F 77% 30.24 in 10.0 mi SE 10.4 mph - N/A   Clear
6:54 AM -14.8 °F -33.5 °F -22.0 °F 70% 30.23 in 10.0 mi ESE 9.2 mph - N/A   Clear
7:13 AM -14.8 °F -35.6 °F -22.0 °F 70% 30.21 in 10.0 mi SE 11.5 mph - N/A   Clear
7:33 AM -14.8 °F -36.6 °F -22.0 °F 70% 30.22 in 10.0 mi SE 12.7 mph - N/A   Clear
7:54 AM -14.8 °F -35.6 °F -22.0 °F 70% 30.21 in 10.0 mi SSE 11.5 mph - N/A   Clear
8:13 AM -11.2 °F -30.1 °F -20.2 °F 64% 30.21 in 10.0 mi SSE 10.4 mph - N/A   Clear
8:33 AM -7.6 °F -24.6 °F -18.4 °F 59% 30.20 in 10.0 mi SSE 9.2 mph - N/A   Clear
8:54 AM -4.0 °F -21.2 °F -14.8 °F 60% 30.20 in 10.0 mi SSE 10.4 mph - N/A   Clear
9:13 AM -2.2 °F -22.9 °F -13.0 °F 60% 30.20 in 10.0 mi SSE 16.1 mph 20.7 mph N/A   Scattered Clouds
9:33 AM -2.2 °F -22.2 °F -11.2 °F 66% 30.19 in 10.0 mi SSE 15.0 mph - N/A   Scattered Clouds
9:54 AM -0.4 °F -20.5 °F -11.2 °F 60% 30.19 in 10.0 mi SSE 16.1 mph - N/A   Scattered Clouds
10:13 AM 1.4 °F -16.1 °F -9.4 °F 61% 30.18 in 10.0 mi SSE 12.7 mph 18.4 mph N/A   Clear
10:33 AM 1.4 °F -16.9 °F -7.6 °F 66% 30.19 in 10.0 mi SE 13.8 mph - N/A   Scattered Clouds
10:54 AM 3.2 °F -13.9 °F -5.8 °F 66% 30.17 in 7.0 mi SSE 12.7 mph - N/A Snow Light Snow
11:13 AM 5.0 °F -13.6 °F -2.2 °F 72% 30.16 in 1.8 mi SSE 16.1 mph - N/A Snow Light Snow
11:33 AM 5.0 °F -13.0 °F -2.2 °F 72% 30.14 in 7.0 mi SSE 15.0 mph - N/A Snow Light Snow
11:54 AM 8.6 °F -10.0 °F -0.4 °F 67% 30.13 in 10.0 mi SSE 18.4 mph - N/A   Mostly Cloudy
12:13 PM 8.6 °F -11.0 °F 1.4 °F 73% 30.12 in 10.0 mi SSE 20.7 mph 26.5 mph N/A Snow Light Snow
12:33 PM 8.6 °F -10.0 °F -0.4 °F 67% 30.12 in 10.0 mi SSE 18.4 mph 24.2 mph N/A   Mostly Cloudy
12:54 PM 8.6 °F -8.9 °F -0.4 °F 67% 30.10 in 10.0 mi SSE 16.1 mph 26.5 mph N/A   Overcast
1:13 PM 8.6 °F -8.9 °F -0.4 °F 67% 30.09 in 10.0 mi SSE 16.1 mph - N/A   Overcast
1:33 PM 8.6 °F -8.3 °F 1.4 °F 73% 30.09 in 10.0 mi SSE 15.0 mph 20.7 mph N/A   Overcast
1:54 PM 8.6 °F -7.7 °F 1.4 °F 73% 30.07 in 2.0 mi SSE 13.8 mph 23.0 mph N/A Snow Light Snow
2:13 PM 8.6 °F -9.5 °F 3.2 °F 79% 30.07 in 1.0 mi SSE 17.3 mph 23.0 mph N/A Snow Light Snow
2:33 PM 8.6 °F -9.5 °F 5.0 °F 85% 30.07 in 1.2 mi SSE 17.3 mph - N/A Snow Light Snow
2:54 PM 8.6 °F -7.7 °F 5.0 °F 85% 30.08 in 1.0 mi SSE 13.8 mph - N/A Snow Light Snow
3:13 PM 8.6 °F -8.3 °F 5.0 °F 85% 30.08 in 0.5 mi SSE 15.0 mph - N/A Snow Snow
3:33 PM 8.6 °F -7.0 °F 5.0 °F 85% 30.08 in 0.5 mi SSE 12.7 mph 18.4 mph N/A Snow Snow
3:54 PM 8.6 °F -8.3 °F 5.0 °F 85% 30.08 in 0.5 mi SSE 15.0 mph - N/A Snow Snow
4:13 PM 8.6 °F -6.3 °F 5.0 °F 85% 30.08 in 0.8 mi SSE 11.5 mph - N/A Snow Light Snow
4:33 PM 8.6 °F -6.3 °F 5.0 °F 85% 30.08 in 0.5 mi SSE 11.5 mph - N/A Snow Snow
4:53 PM 8.6 °F -6.3 °F 6.8 °F 92% 30.08 in 1.5 mi SSE 11.5 mph - N/A Snow Light Snow
5:13 PM 8.6 °F -6.3 °F 6.8 °F 92% 30.08 in 2.5 mi SSE 11.5 mph - N/A Snow Light Snow
5:34 PM 8.6 °F -6.3 °F 6.8 °F 92% 30.08 in 3.0 mi South 11.5 mph - N/A Snow Light Snow
5:53 PM 10.4 °F -4.1 °F 6.8 °F 85% 30.08 in 4.0 mi South 11.5 mph - N/A Snow Light Snow
6:13 PM 10.4 °F -3.3 °F 6.8 °F 85% 30.07 in 4.0 mi South 10.4 mph - 0.01 in Snow Light Snow
6:34 PM 10.4 °F -4.8 °F 6.8 °F 85% 30.07 in 7.0 mi South 12.7 mph - 0.01 in Snow Light Snow
6:51 PM 10.4 °F -2.4 °F 6.8 °F 85% 30.07 in 5.0 mi South 9.2 mph - 0.01 in Snow Light Snow
7:41 PM 10.4 °F -3.3 °F 6.8 °F 85% 30.07 in 4.0 mi SSE 10.4 mph - N/A   Overcast
8:01 PM 10.4 °F -1.5 °F 6.8 °F 85% 30.07 in 2.0 mi South 8.1 mph - N/A   Overcast
9:21 PM 10.4 °F -1.5 °F 8.6 °F 92% 30.05 in 5.0 mi South 8.1 mph - N/A   Overcast
9:41 PM 10.4 °F -0.4 °F 8.6 °F 92% 30.05 in 7.0 mi SSW 6.9 mph - N/A   Overcast
10:01 PM 10.4 °F -0.4 °F 8.6 °F 92% 30.05 in 7.0 mi SSW 6.9 mph - N/A   Overcast
10:21 PM 10.4 °F -0.4 °F 8.6 °F 92% 30.04 in 7.0 mi South 6.9 mph - N/A   Overcast
10:41 PM 10.4 °F -1.5 °F 8.6 °F 92% 30.04 in 7.0 mi SSW 8.1 mph - N/A   Overcast
11:21 PM 10.4 °F -0.4 °F 8.6 °F 92% 30.04 in 5.0 mi SSW 6.9 mph - N/A   Overcast